Location: *
(57.8420°S, 159.8600°W)
Time: 04:05:16
(UTC+00:00)

Cosmos 2151 - Pass Details

Date: 18 May 2021
Orbit: 580 x 602 km, 82.5° (Epoch: 20 June)

Event Time Altitude Azimuth Distance (km) Brightness Sun altitude
Rises 05:59:34 0° 326° (NW) 2,817 6.8 -27.6°
Reaches altitude 10° 06:01:52 10° 317° (NW) 1,926 6.0 -27.9°
Maximum altitude 06:05:52 39° 248° (WSW) 911 4.3 -28.4°
Enters shadow 06:06:57 33° 213° (SSW) 1,023 4.4 -28.6°
